IRIDIUM 106 1 41917U 17003A 25187.74132184 .00000054 00000-0 12262-4 0 9992 2 41917 86.3960 232.8314 0001941 83.7729 276.3688 14.34217867443699 IRIDIUM 103 1 41918U 17003B 25187.58910142 .00000047 00000-0 95473-5 0 9991 2 41918 86.3960 232.7958 0002746 82.2521 277.8986 14.34217806443691 IRIDIUM 109 1 41919U 17003C 25187.59544323 .00000067 00000-0 17030-4 0 9991 2 41919 86.3962 232.8470 0002521 92.7460 267.4024 14.34217954443662 IRIDIUM 102 1 41920U 17003D 25187.56372959 .00000090 00000-0 25212-4 0 9991 2 41920 86.3959 232.7909 0002362 95.8195 264.3271 14.34217918443747 IRIDIUM 105 1 41921U 17003E 25187.53446367 .00000142 00000-0 43504-4 0 9996 2 41921 86.3984 201.2759 0002469 86.9079 273.2399 14.34217393445592 IRIDIUM 104 1 41922U 17003F 25187.57641558 .00000162 00000-0 50752-4 0 9995 2 41922 86.3961 232.8234 0002760 93.0428 267.1084 14.34217826443735 IRIDIUM 114 1 41923U 17003G 25187.65252586 .00000076 00000-0 20091-4 0 9991 2 41923 86.3960 232.7757 0002438 86.5353 273.6121 14.34218126443749 IRIDIUM 108 1 41924U 17003H 25187.54127832 .00000069 00000-0 17403-4 0 9990 2 41924 86.3978 201.1732 0002115 91.2243 268.9195 14.34217842445569 IRIDIUM 112 1 41925U 17003J 25187.57007482 .00000193 00000-0 61893-4 0 9992 2 41925 86.3957 232.6679 0002352 94.6388 265.5077 14.34216155443731 IRIDIUM 111 1 41926U 17003K 25187.62715605 .00000075 00000-0 19734-4 0 9998 2 41926 86.3957 232.7071 0002255 88.5450 271.6005 14.34217688443790 IRIDIUM 113 1 42803U 17039A 25187.81642613 .00000019 00000-0 -26091-6 0 9996 2 42803 86.3976 106.5580 0002444 85.0906 275.0569 14.34217778421684 IRIDIUM 123 1 42804U 17039B 25187.36952463 .00000005 00000-0 -54283-5 0 9992 2 42804 86.3998 138.2082 0002146 75.9806 284.1628 14.34217615420387 IRIDIUM 120 1 42805U 17039C 25187.32170296 .00000013 00000-0 -24071-5 0 9996 2 42805 86.3964 106.5918 0001897 79.6700 280.4710 14.34217645421603 IRIDIUM 115 1 42806U 17039D 25187.29634741 .00000301 00000-0 83454-4 0 9991 2 42806 86.4503 106.6839 0002306 65.3543 294.7898 14.43280504424376 IRIDIUM 118 1 42807U 17039E 25187.88961341 .00000047 00000-0 98145-5 0 9997 2 42807 86.3994 137.9904 0002484 86.9464 273.2016 14.34216323420466 IRIDIUM 117 1 42808U 17039F 25187.90864559 .00000016 00000-0 -14535-5 0 9992 2 42808 86.3994 137.9435 0002403 78.8133 281.3333 14.34217739420497 IRIDIUM 126 1 42809U 17039G 25187.86424749 -.00000003 00000-0 -82650-5 0 9991 2 42809 86.3999 138.0076 0002372 81.9067 278.2398 14.34217601420463 IRIDIUM 124 1 42810U 17039H 25187.16083903 .00000290 00000-0 80077-4 0 9995 2 42810 86.4473 75.0351 0002005 82.0702 278.0726 14.43278709425206 IRIDIUM 128 1 42811U 17039J 25187.43637329 .00000091 00000-0 25259-4 0 9993 2 42811 86.3999 169.6585 0001960 82.8654 277.2765 14.34218129420424 IRIDIUM 121 1 42812U 17039K 25187.88327481 -.00000001 00000-0 -75556-5 0 9997 2 42812 86.3999 138.0249 0002059 86.0605 274.0826 14.34217519420452 IRIDIUM 133 1 42955U 17061A 25187.46808636 .00000101 00000-0 29027-4 0 9990 2 42955 86.4001 169.7542 0002289 85.5088 274.6370 14.34218473405224 IRIDIUM 100 1 42956U 17061B 25187.88035024 .00000208 00000-0 67059-4 0 9995 2 42956 86.3999 169.5090 0002293 82.4082 277.7374 14.34220213405303 IRIDIUM 122 1 42957U 17061C 25187.49979914 .00000144 00000-0 44398-4 0 9998 2 42957 86.3998 169.6671 0002316 84.7544 275.3916 14.34218614405233 IRIDIUM 129 1 42958U 17061D 25187.52517106 .00000174 00000-0 55175-4 0 9992 2 42958 86.4000 169.7196 0002634 92.9714 267.1784 14.34218348405253 IRIDIUM 119 1 42959U 17061E 25187.91206949 .00000052 00000-0 11363-4 0 9992 2 42959 86.4000 169.5525 0002552 83.9977 276.1510 14.34217697405329 IRIDIUM 107 1 42960U 17061F 25187.51248529 .00000125 00000-0 37425-4 0 9998 2 42960 86.4001 169.7384 0002355 75.3353 284.8104 14.34218301405273 IRIDIUM 132 1 42961U 17061G 25187.44905916 .00000084 00000-0 23033-4 0 9995 2 42961 86.4000 169.7469 0002268 84.3996 275.7458 14.34218044405267 IRIDIUM 136 1 42962U 17061H 25187.48077244 .00000058 00000-0 13584-4 0 9995 2 42962 86.4001 169.7386 0002479 82.7636 277.3841 14.34218055405282 IRIDIUM 139 1 42963U 17061J 25187.48711389 .00000212 00000-0 68563-4 0 9990 2 42963 86.4002 169.7922 0002296 81.0362 279.1094 14.34218886405298 IRIDIUM 125 1 42964U 17061K 25187.47443077 .00000071 00000-0 18294-4 0 9995 2 42964 86.4004 169.8520 0002792 77.6876 282.4633 14.34218013405308